Flag for Germany Weather past 2 weeks in Erftstadt, North Rhine-Westphalia, Germany

46 °F

Partly cloudy.

Feels Like: 41 °F
Forecast: 52 / 57 °F
Wind: 10 mph from Southwest

Location: Noervenich

Current Time: Nov 30, 2015 at 7:19:14 AM

Latest Report: Nov 30, 2015 at 6:20 AM

Visibility: N/A

Pressure: 30.07 "Hg

Humidity: 76%

Dew point: 39 °F

Location of ErftstadtLocation

Historic Weather in Erftstadt — Graph


Erftstadt temperature yesterday

Maximum temperature yesterday: 52 °F (at 12:20 PM)
Minimum temperature yesterday: 43 °F (at 1:20 AM)
Average temperature yesterday: 49 °F

Past Weeks' High & Low Weather Summary

High63 °F (Nov 17, 9:20 PM)100% (Nov 19, 5:20 PM)30.27 "Hg (Nov 19, 5:20 PM)
Low30 °F (Nov 27, 5:20 AM)57% (Nov 27, 2:20 PM)29.39 "Hg (Nov 21, 12:20 PM)
Average45 °F82%29.87 "Hg
* Reported Nov 15 5:20 AM — Nov 30 5:20 AM, Erftstadt, Weather by CustomWeather, © 2015

Note: Actual official high and low records may vary slightly from our data, if they occured in-between our weather recording intervals... More about our weather records


Erftstadt weather history for previous 24 hours

Time TempWeatherWind HumidityBarometerVisibility
5:20 AM
Mon, Nov 30
48 °FPassing clouds.10 mph76%30.04 "HgN/A
4:20 AM46 °FPassing clouds.12 mph87%30.01 "HgN/A
3:20 AM48 °FPartly cloudy.12 mph87%29.98 "HgN/A
2:20 AM50 °FLight rain. Partly cloudy.16 mph88%29.95 "HgN/A
1:20 AM46 °FHeavy rain. Passing clouds.22 mph93%29.92 "Hg4 mi
12:20 AM52 °FLight rain. Passing clouds.29 mph82%29.86 "HgN/A
11:20 PM
Sun, Nov 29
50 °FLight rain. Passing clouds.28 mph88%29.86 "HgN/A
10:20 PM52 °FLight rain. Passing clouds.28 mph82%29.80 "HgN/A
9:20 PM52 °FLight rain. Passing clouds.30 mph82%29.80 "HgN/A
8:20 PM52 °FPartly cloudy.24 mph82%29.80 "HgN/A
7:20 PM52 °FLight rain. Partly cloudy.24 mph82%29.80 "HgN/A
6:20 PM52 °FPassing clouds.26 mph77%29.83 "HgN/A
5:20 PM52 °FLight rain. Partly cloudy.28 mph77%29.80 "HgN/A
4:20 PM52 °FLight rain. Broken clouds.22 mph77%29.80 "Hg5 mi
3:20 PM52 °FLight rain. Broken clouds.25 mph77%29.80 "HgN/A
2:20 PM52 °FLight rain. Broken clouds.22 mph82%29.80 "Hg4 mi
1:20 PM50 °FLight rain. Broken clouds.12 mph88%29.83 "Hg5 mi
12:20 PM52 °FLight rain. Broken clouds.16 mph77%29.86 "HgN/A
11:20 AM50 °FCool.16 mph82%29.86 "Hg5 mi
10:20 AM50 °FCool.16 mph82%29.86 "Hg2 mi
9:20 AM48 °FCool.12 mph82%29.86 "Hg6 mi
8:20 AM48 °FCool.12 mph82%29.83 "Hg6 mi
7:20 AM48 °FCool.8 mph82%29.83 "Hg2 mi
Weather by CustomWeather, © 2015

See weather overviewHow to use our weather pages